{"data":{"norad_id":68926,"epoch":"2026-05-25T02:06:37.985760Z","epoch_age_seconds":63453,"freshness":"FRESH","line1":"1 68926U 26098H   26145.08793965 -.00006081  00000+0 -18973-3 0  9998","line2":"2 68926  51.8746 179.4293 0014072  62.6154 297.6260 15.30610042  3790","mean_motion":15.30610042,"eccentricity":0.0014072,"inclination_deg":51.8746,"raan_deg":179.4293,"arg_perigee_deg":62.6154,"mean_anomaly_deg":297.626,"bstar":-0.00018973,"rev_number":379,"period_min":94.08013540264,"perigee_km":464.34871668237,"apogee_km":483.63334581352,"semimajor_km":6852.1280312479,"source":"CELESTRAK","updated_at":"2026-05-25T13:38:08.793861Z"}}